Location: Hylvaty SDH
(49.9612°N, 16.4057°E)
Time: 12:16:40
(UTC+01:00)

A-11 Canister half - Pass Details

Date: 08 October 2020
Orbit: 1526 x 1683 km, 47.3° (Epoch: 28 October)

Event Time Altitude Azimuth Distance (km) Brightness Sun altitude
Rises 23:29:06 0° 265° (W) 4,675 11.7 -43.8°
Reaches altitude 10° 23:32:08 10° 264° (W) 3,694 11.1 -44.0°
Enters shadow 23:34:41 21° 262° (W) 2,897 10.5 -44.2°
Maximum altitude 23:41:25 77° 181° (S) 1,576 - -44.6°
Drops below altitude 10° 23:50:53 10° 97° (E) 3,764 - -45.1°
Sets 23:54:00 0° 96° (E) 4,768 - -45.2°
